Regional Weather Roundup
Issued by NWS

Home | Current Version | Previous Version | Text Only | Print | Product List | Glossary Off
Versions: 1 2 3 4 5 6 7 8 9 10 11 12 13 14 15 16 17 18 19 20 21 22 23 24 25 26 27 28 29 30 31 32 33 34 35 36 37 38 39 40 41 42 43 44 45 46 47 48 49 50

000
ASUS43 KLSX 201759
RWRMO

WEATHER SUMMARY FOR MISSOURI
NATIONAL WEATHER SERVICE SPRINGFIELD MO
100 PM CDT MON APR 20 2015

NOTE: "FAIR" INDICATES FEW OR NO CLOUDS BELOW 12,000 FEET WITH NO
       SIGNIFICANT WEATHER AND/OR OBSTRUCTIONS TO VISIBILITY.
       CURRENT SKY AND/OR WEATHER CONDITIONS ARE NOT AVAILABLE FOR
       CHILLICOTHE AND FARMINGTON.

MOZ001>031-035>038-043-044-053-054-201900-
...NORTHERN AND WESTERN MISSOURI...

CITY           SKY/WX    TMP DP  RH WIND       PRES   REMARKS
KANSAS CTY INT PTSUNNY   55  32  41 W18G29    29.84F
6HR MIN TEMP:  42; 6HR MAX TEMP:  55;

KANSAS C DTWN  LGT RAIN  57  28  33 NW17G36   29.84F
6HR MIN TEMP:  46; 6HR MAX TEMP:  57; 6HR PCP: TRACE;

LEE`S SUMMIT   PTSUNNY   55  30  38 W17G28    29.85F
6HR MIN TEMP:  44; 6HR MAX TEMP:  56;

ST JOSEPH      PTSUNNY   54  31  41 NW16G30   29.84F
6HR MIN TEMP:  42; 6HR MAX TEMP:  55;

CHILLICOTHE      N/A     54  33  45 NW16G25   29.80S
6HR MIN TEMP:  45; 6HR MAX TEMP:  54;

KIRKSVILLE     LGT RAIN  50  33  52 NW20G29   29.75R
6HR MIN TEMP:  45; 6HR MAX TEMP:  50; 6HR PCP: TRACE;


$$
MOZ066>068-077>081-088>096-101>105-201900-
...SOUTHWEST MISSOURI...

CITY           SKY/WX    TMP DP  RH WIND       PRES   REMARKS
SPRINGFIELD    MOSUNNY   54  31  41 NW15G26   29.88S
6HR MIN TEMP:  46; 6HR MAX TEMP:  56;

JOPLIN         MOSUNNY   56  35  45 NW20G26   29.93F
6HR MIN TEMP:  44; 6HR MAX TEMP:  57;


$$
MOZ032>034-039>042-045>050-055>058-069>072-201900-
...CENTRAL MISSOURI...

CITY           SKY/WX    TMP DP  RH WIND       PRES   REMARKS
COLUMBIA       CLOUDY    52  34  50 NW21G30   29.79R
6HR MIN TEMP:  46; 6HR MAX TEMP:  53;

JEFFERSON CITY CLOUDY    54  32  43 W22G29    29.80R
6HR MIN TEMP:  48; 6HR MAX TEMP:  55;

ROLLA          CLOUDY    53  32  44 NW21G29   29.77R
6HR MIN TEMP:  46; 6HR MAX TEMP:  55;

SEDALIA        PTSUNNY   54  36  50 W18G30    29.84R
6HR MIN TEMP:  46; 6HR MAX TEMP:  55;

WHITEMAN AFB   PTSUNNY   54  32  43 W17G25    29.83S
OSAGE BEACH    CLOUDY    55  30  38 W16G29    29.82S

$$
MOZ051-052-059>065-201900-
...EAST CENTRAL MISSOURI...

CITY           SKY/WX    TMP DP  RH WIND       PRES   REMARKS
ST LOUIS INTL  PTSUNNY   55  35  47 W15G30    29.74R
6HR MIN TEMP:  52; 6HR MAX TEMP:  58;

SPIRIT OF STL  CLOUDY    55  36  48 W16G29    29.73R
6HR MIN TEMP:  50; 6HR MAX TEMP:  56;

ST CHARLES     CLOUDY    52  36  54 W23G32    29.72R
6HR MIN TEMP:  51; 6HR MAX TEMP:  55;


$$
MOZ072>076-082>087-097>100-106>115-201900-
...SOUTH CENTRAL AND SOUTHEAST MISSOURI...

CITY           SKY/WX    TMP DP  RH WIND       PRES   REMARKS
CAPE GIRARDEAU PTSUNNY   62  40  44 NW15      29.74R
6HR MIN TEMP:  54; 6HR MAX TEMP:  63;

FARMINGTON     CLOUDY    55  36  47 W17G26    29.78S
6HR MIN TEMP:  48; 6HR MAX TEMP:  57;

POPLAR BLUFF   LGT RAIN  64  35  34 W15G22    29.77R
6HR MIN TEMP:  54; 6HR MAX TEMP:  64; 6HR PCP: TRACE;

WEST PLAINS    PTSUNNY   57  33  40 NW18G31   29.83R
6HR MIN TEMP:  48; 6HR MAX TEMP:  60;


$$



USA.gov is the U.S. government's official web portal to all federal, state and local government web resources and services.